Notices

What's New in latest Release from April 7th, 2021:

- Updated Glossary, including Speed of Maximum Gust, and Total Hourly Precipitation

- Updated national and regional climate services offices contacts and prices information

- Addition of station inventory lists for 1981-2010, 1971-2000, and 1961-1990 Normals.

If you haven't already, please take our survey and provide feedback about our website: https://eccc.sondage-survey.ca/f/LanguageSelection.aspx?s=442ca660-fcf1-47c0-95a9-59707d6fd709

Hourly Data Report for November 17, 2020

VICTORIA UNIVERSITY CS
BRITISH COLUMBIA
Current Station Operator: ECCC - MSC

48°27'25.200" N
123°18'16.600" W
60.10 m
1018598
71783
WYJ

Download Data

Hourly Data (November 2020)
Hourly Data Report for November 17, 2020
TIME
LST
Temp Definition
°C
Dew Point Definition
°C
Rel Hum Definition
%
Precip. Amount Definition
mm

Wind Dir Definition
10's deg

Wind Spd Definition
km/h
Visibility Definition
km
Stn Press Definition
kPa
Hmdx Definition


Wind Chill Definition


Weather Definition


00:00 6.9 6.8 100 0.0 35 17   99.25     LegendNANA
01:00 7.0 7.0 100 0.0 34 14   99.14     LegendNANA
02:00 6.9 6.9 100 0.0 34 17   98.97     LegendNANA
03:00 7.1 6.9 98 0.0 36 14   98.85     LegendNANA
04:00 7.3 7.0 97 0.0 35 13   98.68     LegendNANA
05:00 7.5 7.1 97 0.0 35 13   98.57     LegendNANA
06:00 7.4 6.8 96 0.0 35 12   98.38     LegendNANA
07:00 7.3 6.8 97 0.0 29 3   98.26     LegendNANA
08:00 11.4 7.4 76 0.0 18 9   98.16     LegendNANA
09:00 11.8 9.4 85 1.0 13 7   98.15     LegendNANA
10:00 11.3 9.5 89 0.3 14 6   98.13     LegendNANA
11:00 10.4 10.0 97 1.2 14 9   98.21     LegendNANA
12:00 10.6 10.2 97 1.0 15 11   98.26     LegendNANA
13:00 10.8 10.8 100 1.9 25 3   98.51     LegendNANA
14:00 12.2 10.0 86 0.0 23 5   98.54     LegendNANA
15:00 12.0 9.3 83 0.0 25 11   98.66     LegendNANA
16:00 10.6 8.6 88 0.0 27 15   98.75     LegendNANA
17:00 9.9 8.9 93 0.8 26 10   98.87     LegendNANA
18:00 9.2 7.5 89 1.8 25 11   98.90     LegendNANA
19:00 8.7 8.4 98 1.0 25 7   98.98     LegendNANA
20:00 8.7 7.9 95 0.2 26 12   99.10     LegendNANA
21:00 8.1 7.0 93 0.3 25 7   99.22     LegendNANA
22:00 7.7 6.6 93 0.0 23 6   99.37     LegendNANA
23:00 6.7 6.4 98 0.0 15 2   99.49     LegendNANA

Notes on Data Quality.

Legend

  • E = Estimated
  • M = Missing
  • NA = Not Available*
  • [empty] = Indicates an unobserved value
Date modified: